SP2FH-13 Weather Reports


time (UTC)temp
C
wind
direction
speed
KPH
gust
KPH
rain 1hr
cm
rain 24hr
cm
rain mn
cm
humidity
%
barometer
mb
20260508053030 7 305 1.6 4.8 0.00 0.00 0.00 89 1007.1
20260508052528 7 303 1.6 4.8 0.00 0.00 0.00 89 1007.2
20260508052026 7 324 1.6 3.2 0.00 0.00 0.00 89 1007.2
20260508051525 7 264 1.6 4.8 0.00 0.00 0.00 89 1007.1
20260508051024 7 336 1.6 6.4 0.00 0.00 0.00 89 1007.2
20260508050523 7 282 1.6 4.8 0.00 0.00 0.00 89 1007.1
20260508050022 7 354 1.6 4.8 0.00 0.00 0.00 90 1007.1
20260508045521 7 324 1.6 6.4 0.00 0.00 0.00 90 1007.0
20260508045020 7 276 0.0 3.2 0.00 0.00 0.00 90 1007.1
20260508044519 7 24 1.6 8.0 0.00 0.00 0.00 90 1007.2
20260508044018 7 300 1.6 3.2 0.00 0.00 0.00 90 1007.1
20260508043517 7 300 1.6 3.2 0.00 0.00 0.00 89 1007.1
20260508043016 7 252 1.6 3.2 0.00 0.00 0.00 90 1007.0
20260508042514 7 324 1.6 3.2 0.00 0.00 0.00 89 1007.0
20260508042013 7 181 1.6 6.4 0.00 0.00 0.00 89 1007.0
20260508041512 7 300 0.0 3.2 0.00 0.00 0.00 89 1007.0
20260508041010 7 280 0.0 3.2 0.00 0.00 0.00 89 1007.0
20260508040509 7 282 0.0 3.2 0.00 0.00 0.00 89 1006.9
20260508040008 7 306 0.0 3.2 0.00 0.00 0.00 89 1006.9
20260508035507 7 186 1.6 6.4 0.00 0.00 0.00 89 1006.9
20260508035005 7 266 1.6 4.8 0.00 0.00 0.00 90 1006.8
20260508034504 7 330 1.6 4.8 0.00 0.00 0.00 89 1006.8
20260508034002 7 309 1.6 6.4 0.00 0.00 0.00 89 1006.7
20260508033501 7 324 1.6 4.8 0.00 0.00 0.00 90 1006.7
20260508033000 6 310 1.6 4.8 0.00 0.00 0.00 89 1006.7
20260508032459 6 300 1.6 4.8 0.00 0.00 0.00 89 1006.7
20260508031958 6 312 1.6 3.2 0.00 0.00 0.00 90 1006.6
20260508031456 7 306 1.6 4.8 0.00 0.00 0.00 90 1006.6
20260508030956 7 285 1.6 6.4 0.00 0.00 0.00 90 1006.6
20260508030454 7 264 1.6 4.8 0.00 0.00 0.00 89 1006.6
20260508025953 7 214 1.6 3.2 0.00 0.00 0.00 89 1006.5
20260508025453 7 84 1.6 4.8 0.00 0.00 0.00 89 1006.6
20260508024952 7 306 1.6 4.8 0.00 0.00 0.00 89 1006.6
20260508024450 7 324 1.6 6.4 0.00 0.00 0.00 89 1006.6
20260508023448 7 168 1.6 6.4 0.00 0.00 0.00 88 1006.6
20260508022947 7 266 3.2 6.4 0.00 0.00 0.00 88 1006.6
20260508022445 7 312 1.6 4.8 0.00 0.00 0.00 89 1006.5
20260508021945 7 234 1.6 3.2 0.00 0.00 0.00 88 1006.5
20260508021443 7 292 1.6 4.8 0.00 0.00 0.00 88 1006.4
20260508020942 7 204 1.6 4.8 0.00 0.00 0.00 88 1006.4
20260508020441 7 288 1.6 3.2 0.00 0.00 0.00 88 1006.5
20260508015939 7 228 0.0 3.2 0.00 0.00 0.00 88 1006.6
20260508015437 7 330 1.6 6.4 0.00 0.00 0.00 88 1006.6
20260508014937 7 156 0.0 1.6 0.00 0.00 0.00 88 1006.6
20260508014436 7 242 1.6 3.2 0.00 0.00 0.00 88 1006.5
20260508013935 7 300 1.6 6.4 0.00 0.00 0.00 88 1006.5
20260508013433 7 222 1.6 3.2 0.00 0.00 0.00 88 1006.5
20260508012932 7 354 1.6 3.2 0.00 0.00 0.00 88 1006.4
20260508012431 7 288 1.6 6.4 0.00 0.00 0.00 88 1006.4
20260508011930 7 276 1.6 3.2 0.00 0.00 0.00 88 1006.4
20260508011428 7 280 1.6 3.2 0.00 0.00 0.00 88 1006.4
20260508010927 7 276 1.6 6.4 0.00 0.00 0.00 88 1006.5
20260508010426 7 287 0.0 3.2 0.00 0.00 0.00 88 1006.5
20260508005924 7 294 1.6 3.2 0.00 0.00 0.00 88 1006.5
20260508005424 7 270 1.6 3.2 0.00 0.00 0.00 88 1006.4
20260508004923 7 306 1.6 4.8 0.00 0.00 0.00 88 1006.4
20260508004421 7 246 0.0 3.2 0.00 0.00 0.00 88 1006.4
20260508003921 7 234 0.0 4.8 0.00 0.00 0.00 88 1006.5
20260508003419 7 271 0.0 3.2 0.00 0.00 0.00 88 1006.5
20260508002918 7 270 0.0 3.2 0.00 0.00 0.00 88 1006.5
20260508002416 7 162 1.6 6.4 0.00 0.00 0.00 88 1006.5
20260508001916 7 192 1.6 3.2 0.00 0.00 0.00 87 1006.4
20260508001415 7 276 1.6 6.4 0.00 0.00 0.00 87 1006.5
20260508000914 7 330 1.6 4.8 0.00 0.00 0.00 88 1006.5
20260508000413 7 270 1.6 3.2 0.00 0.00 0.00 88 1006.4
20260507235912 7 230 0.0 3.2 0.00 0.00 0.00 87 1006.4
20260507235411 7 312 0.0 1.6 0.00 0.00 0.00 87 1006.4
20260507234909 7 276 1.6 4.8 0.00 0.00 0.00 87 1006.4
20260507234407 7 252 1.6 4.8 0.00 0.00 0.00 87 1006.4
20260507233906 7 276 0.0 6.4 0.00 0.00 0.00 87 1006.4
20260507233405 7 282 1.6 4.8 0.00 0.00 0.00 87 1006.4
20260507232904 7 150 1.6 3.2 0.00 0.00 0.00 87 1006.3
20260507232403 7 306 1.6 3.2 0.00 0.00 0.00 87 1006.4
20260507231902 7 306 1.6 3.2 0.00 0.00 0.00 87 1006.2
20260507231401 7 174 1.6 8.0 0.00 0.00 0.00 87 1006.3
20260507230900 7 298 1.6 3.2 0.00 0.00 0.00 87 1006.3
20260507230359 7 282 1.6 3.2 0.00 0.00 0.00 86 1006.3
20260507225858 7 36 1.6 4.8 0.00 0.00 0.00 86 1006.2
20260507225357 7 255 1.6 3.2 0.00 0.00 0.00 86 1006.2
20260507224856 7 279 1.6 6.4 0.00 0.00 0.00 86 1006.2
20260507224354 7 288 1.6 3.2 0.00 0.00 0.00 86 1006.1
20260507223853 7 282 1.6 3.2 0.00 0.00 0.00 86 1006.1
20260507223351 7 276 1.6 4.8 0.00 0.00 0.00 85 1006.2
20260507222850 7 281 1.6 3.2 0.00 0.00 0.00 85 1006.2
20260507222349 7 228 1.6 6.4 0.00 0.00 0.00 85 1006.2
20260507221848 7 294 3.2 6.4 0.00 0.00 0.00 85 1006.1
20260507221347 7 270 1.6 4.8 0.00 0.00 0.00 85 1006.0
20260507220845 7 276 1.6 4.8 0.00 0.00 0.00 85 1006.0
20260507220344 7 66 3.2 4.8 0.00 0.00 0.00 85 1006.0
20260507215843 7 282 3.2 4.8 0.00 0.00 0.00 85 1006.0
20260507215342 7 300 1.6 3.2 0.00 0.00 0.00 85 1006.1
20260507214841 7 60 1.6 3.2 0.00 0.00 0.00 85 1006.1
20260507214340 7 132 1.6 3.2 0.00 0.00 0.00 85 1006.1
20260507213839 7 186 3.2 4.8 0.00 0.00 0.00 85 1006.1
20260507213337 7 288 3.2 6.4 0.00 0.00 0.00 84 1006.0
20260507212836 7 282 1.6 3.2 0.00 0.00 0.00 84 1006.0
20260507212334 7 291 1.6 4.8 0.00 0.00 0.00 84 1006.1
20260507211832 7 282 1.6 4.8 0.00 0.00 0.00 84 1006.0
20260507211331 7 242 1.6 4.8 0.00 0.00 0.00 84 1005.9
20260507210830 7 264 1.6 3.2 0.00 0.00 0.00 83 1005.9
20260507210330 7 252 1.6 4.8 0.00 0.00 0.00 83 1005.8
20260507205829 7 225 1.6 3.2 0.00 0.00 0.00 83 1005.7
20260507205327 7 306 1.6 3.2 0.00 0.00 0.00 83 1005.7
20260507204826 7 336 3.2 6.4 0.00 0.00 0.00 83 1005.8
20260507204325 7 288 1.6 4.8 0.00 0.00 0.00 83 1005.8
20260507203824 7 66 3.2 6.4 0.00 0.00 0.00 83 1005.7
20260507203323 7 101 1.6 4.8 0.00 0.00 0.00 83 1005.8
20260507202822 7 342 1.6 4.8 0.00 0.00 0.00 82 1005.8
20260507202320 7 246 1.6 6.4 0.00 0.00 0.00 82 1005.8
20260507201820 7 298 1.6 4.8 0.00 0.00 0.00 82 1005.8
20260507201319 7 276 3.2 6.4 0.00 0.00 0.00 81 1005.8
20260507200818 7 318 3.2 6.4 0.00 0.00 0.00 81 1005.7
20260507200317 7 192 1.6 9.7 0.00 0.00 0.00 81 1005.7
20260507195816 8 291 3.2 6.4 0.00 0.00 0.00 82 1005.6
20260507195315 7 12 3.2 6.4 0.00 0.00 0.00 82 1005.5
20260507194814 8 318 3.2 4.8 0.00 0.00 0.00 81 1005.6
20260507194313 8 42 3.2 6.4 0.00 0.00 0.00 80 1005.5
20260507193812 8 6 3.2 6.4 0.00 0.00 0.00 80 1005.4
20260507193311 8 318 1.6 4.8 0.00 0.00 0.00 80 1005.4
20260507192809 8 300 1.6 4.8 0.00 0.00 0.00 79 1005.4
20260507192308 8 300 3.2 6.4 0.00 0.00 0.00 79 1005.3
20260507191807 8 299 3.2 6.4 0.00 0.00 0.00 78 1005.2
20260507191306 8 24 1.6 8.0 0.00 0.00 0.00 79 1005.1
20260507190805 8 174 1.6 6.4 0.00 0.00 0.00 79 1005.1
20260507190304 8 222 1.6 3.2 0.00 0.00 0.00 79 1005.1
20260507185803 8 12 0.0 3.2 0.00 0.00 0.00 79 1005.0
20260507185305 8 280 1.6 3.2 0.00 0.00 0.00 79 1005.1
20260507184801 8 240 1.6 4.8 0.00 0.00 0.00 79 1005.1
20260507184300 8 264 3.2 6.4 0.00 0.00 0.00 79 1004.9
20260507183759 8 300 3.2 4.8 0.00 0.00 0.00 79 1004.7
20260507183258 8 48 3.2 4.8 0.00 0.00 0.00 79 1004.7
20260507182756 8 264 3.2 6.4 0.00 0.00 0.00 78 1004.7
20260507182256 8 288 1.6 4.8 0.00 0.00 0.00 79 1004.7
20260507181755 8 276 3.2 8.0 0.00 0.00 0.00 79 1004.6
20260507181254 8 318 1.6 3.2 0.00 0.00 0.00 78 1004.4
20260507180752 8 266 1.6 6.4 0.00 0.00 0.00 78 1004.3
20260507180251 9 312 3.2 8.0 0.00 0.00 0.00 79 1004.3
20260507175750 9 276 1.6 3.2 0.00 0.00 0.00 80 1004.3
20260507175248 9 318 3.2 4.8 0.00 0.00 0.00 79 1004.3
20260507174747 9 54 3.2 4.8 0.00 0.00 0.00 78 1004.2
20260507174247 9 249 3.2 4.8 0.00 0.00 0.00 78 1004.1
20260507173746 9 312 1.6 8.0 0.00 0.00 0.00 78 1004.1
20260507173244 9 324 1.6 4.8 0.00 0.00 0.00 79 1004.1
20260507172743 9 354 3.2 6.4 0.00 0.00 0.00 79 1004.0
20260507172247 9 258 1.6 4.8 0.00 0.00 0.00 79 1003.9
20260507171741 9 261 1.6 6.4 0.00 0.00 0.00 78 1003.8
20260507171240 9 24 3.2 6.4 0.00 0.00 0.00 79 1003.6
20260507170739 9 282 3.2 6.4 0.00 0.00 0.00 79 1003.6
20260507170238 9 287 3.2 6.4 0.00 0.00 0.00 79 1003.6
20260507165736 9 342 3.2 6.4 0.00 0.00 0.00 78 1003.5
20260507165235 9 252 3.2 6.4 0.00 0.00 0.00 78 1003.5
20260507164734 9 90 3.2 6.4 0.00 0.00 0.00 78 1003.5
20260507164233 9 182 3.2 6.4 0.00 0.00 0.00 79 1003.4
20260507163732 9 258 3.2 6.4 0.00 0.00 0.00 79 1003.4
20260507163230 10 54 3.2 8.0 0.00 0.00 0.00 80 1003.5
20260507162730 10 264 3.2 6.4 0.00 0.00 0.00 79 1003.4
20260507162228 10 30 3.2 11.3 0.00 0.00 0.00 80 1003.5
20260507161727 9 214 3.2 6.4 0.00 0.00 0.00 79 1003.4
20260507161226 9 276 3.2 9.7 0.00 0.00 0.00 79 1003.4
20260507160724 10 240 3.2 6.4 0.00 0.00 0.00 79 1003.4
20260507160222 10 330 3.2 8.0 0.00 0.00 0.00 80 1003.5
20260507155722 10 248 4.8 8.0 0.00 0.00 0.00 80 1003.3
20260507155220 9 252 3.2 6.4 0.00 0.00 0.00 80 1003.3
20260507154719 10 336 3.2 6.4 0.00 0.00 0.00 81 1003.2
20260507154218 9 30 3.2 6.4 0.00 0.00 0.00 81 1003.4
20260507153717 10 114 3.2 6.4 0.00 0.00 0.00 81 1003.4
20260507153216 10 253 3.2 4.8 0.00 0.00 0.00 81 1003.4
20260507152715 10 60 3.2 6.4 0.00 0.00 0.00 80 1003.4
20260507152214 10 281 3.2 4.8 0.00 0.00 0.00 81 1003.5
20260507151713 10 300 3.2 8.0 0.00 0.00 0.00 82 1003.5
20260507151212 10 321 3.2 4.8 0.03 0.00 0.00 83 1003.5
20260507150711 10 282 3.2 4.8 0.03 0.00 0.00 85 1003.5
20260507150210 10 266 3.2 6.4 0.05 0.00 0.00 84 1003.5
20260507145708 10 258 3.2 8.0 0.03 0.00 0.00 84 1003.5
20260507145206 10 324 3.2 8.0 0.03 0.00 0.00 83 1003.4
20260507144705 10 354 4.8 11.3 0.00 0.00 0.00 79 1003.5
20260507144204 10 312 3.2 4.8 0.00 0.00 0.00 78 1003.5
20260507143703 10 303 3.2 6.4 0.00 0.00 0.00 79 1003.5
20260507143202 10 234 3.2 6.4 0.00 0.00 0.00 79 1003.5
20260507142701 10 247 3.2 6.4 0.00 0.00 0.00 78 1003.6
20260507142159 10 299 4.8 8.0 0.00 0.00 0.00 78 1003.5
20260507141658 10 24 3.2 6.4 0.00 0.00 0.00 79 1003.5
20260507141157 10 0 1.6 6.4 0.00 0.00 0.00 79 1003.4
20260507140656 10 288 3.2 8.0 0.00 0.00 0.00 79 1003.4
20260507140155 10 48 3.2 4.8 0.00 0.00 0.00 78 1003.3
20260507135655 10 312 3.2 6.4 0.00 0.00 0.00 78 1003.4
20260507135153 10 281 3.2 6.4 0.00 0.00 0.00 79 1003.3
20260507134653 10 342 3.2 6.4 0.00 0.00 0.00 80 1003.3
20260507134151 10 210 1.6 4.8 0.00 0.00 0.00 77 1003.3
20260507133651 10 288 1.6 4.8 0.00 0.00 0.00 79 1003.3
20260507133149 10 246 1.6 3.2 0.00 0.00 0.00 80 1003.2
20260507132647 10 204 1.6 4.8 0.00 0.00 0.00 80 1003.1
20260507132146 10 288 3.2 6.4 0.00 0.00 0.00 81 1003.1
20260507131645 10 246 3.2 4.8 0.00 0.00 0.00 80 1003.2
20260507131143 10 312 3.2 6.4 0.00 0.00 0.00 78 1003.1
20260507130642 10 249 3.2 6.4 0.00 0.00 0.00 79 1003.1
20260507130141 10 255 3.2 6.4 0.00 0.00 0.00 79 1003.1
20260507125640 10 235 3.2 6.4 0.00 0.00 0.00 79 1003.1
20260507125138 10 234 3.2 8.0 0.00 0.00 0.00 79 1003.1
20260507124637 10 0 3.2 8.0 0.00 0.00 0.00 79 1003.0
20260507124136 10 309 3.2 9.7 0.00 0.00 0.00 78 1003.0
20260507123635 10 84 3.2 8.0 0.00 0.00 0.00 79 1003.0
20260507123134 10 210 3.2 6.4 0.00 0.00 0.00 80 1003.0
20260507122633 10 342 3.2 6.4 0.00 0.00 0.00 77 1003.0
20260507122132 10 228 3.2 6.4 0.00 0.00 0.00 78 1002.9
20260507121631 10 186 3.2 6.4 0.00 0.00 0.00 78 1002.8
20260507121130 10 143 3.2 8.0 0.00 0.00 0.00 78 1002.7
20260507120629 10 300 3.2 6.4 0.00 0.00 0.00 78 1002.7
20260507120127 10 231 3.2 4.8 0.00 0.00 0.00 78 1002.7
20260507115626 10 309 1.6 3.2 0.00 0.00 0.00 79 1002.6
20260507115124 10 60 3.2 6.4 0.00 0.00 0.00 79 1002.7
20260507114623 10 306 3.2 4.8 0.00 0.00 0.00 79 1002.4
20260507114121 10 264 1.6 4.8 0.00 0.00 0.00 80 1002.4
20260507113621 10 258 3.2 4.8 0.00 0.00 0.00 79 1002.4
20260507113119 10 210 3.2 4.8 0.00 0.00 0.00 78 1002.4
20260507112617 10 336 4.8 8.0 0.00 0.00 0.00 81 1002.5
20260507112116 10 299 4.8 11.3 0.00 0.00 0.00 80 1002.4
20260507111616 10 316 3.2 6.4 0.00 0.00 0.00 81 1002.3
20260507111114 10 124 3.2 4.8 0.00 0.00 0.00 79 1002.2
20260507110612 10 154 3.2 4.8 0.00 0.00 0.00 80 1002.2
20260507110111 9 276 3.2 6.4 0.00 0.00 0.00 80 1002.0
20260507105611 10 336 3.2 6.4 0.00 0.00 0.00 81 1002.2
20260507105110 10 298 4.8 14.5 0.00 0.00 0.00 81 1002.2
20260507104103 9 281 4.8 8.0 0.00 0.00 0.00 81 1002.0
20260507103601 9 30 4.8 6.4 0.00 0.00 0.00 81 1002.0
20260507103101 9 306 4.8 8.0 0.00 0.00 0.00 83 1002.0
20260507102559 9 304 4.8 8.0 0.00 0.00 0.00 82 1002.0
20260507102058 9 282 6.4 11.3 0.00 0.00 0.00 82 1001.9
20260507101557 8 348 6.4 9.7 0.00 0.00 0.00 83 1002.1
20260507101056 9 316 3.2 9.7 0.00 0.00 0.00 82 1001.9
20260507100556 9 243 3.2 6.4 0.00 0.00 0.00 82 1001.7
20260507100054 9 300 4.8 8.0 0.00 0.00 0.00 83 1001.7
20260507095553 9 272 3.2 6.4 0.00 0.00 0.00 81 1001.6
20260507095052 9 318 3.2 4.8 0.00 0.00 0.00 83 1001.6
20260507094550 8 282 3.2 6.4 0.00 0.00 0.00 83 1001.6
20260507094049 8 297 3.2 8.0 0.00 0.00 0.00 85 1001.6
20260507093548 8 288 3.2 8.0 0.00 0.00 0.00 85 1001.6
20260507093048 8 230 3.2 8.0 0.00 0.00 0.00 86 1001.5
20260507092547 8 294 3.2 8.0 0.00 0.00 0.00 85 1001.5
20260507092045 8 318 3.2 6.4 0.00 0.00 0.00 86 1001.6
20260507091544 8 321 4.8 9.7 0.00 0.00 0.00 86 1001.5
20260507091043 8 330 4.8 8.0 0.00 0.00 0.00 86 1001.5
20260507090542 8 297 4.8 9.7 0.00 0.00 0.00 86 1001.4
20260507090041 8 330 3.2 8.0 0.00 0.00 0.00 87 1001.3
20260507085540 8 286 1.6 6.4 0.00 0.00 0.00 85 1001.2
20260507085039 8 224 3.2 4.8 0.00 0.00 0.00 84 1001.2
20260507084537 8 316 3.2 8.0 0.00 0.00 0.00 84 1001.1
20260507083303 8 260 3.2 4.8 0.00 0.00 0.00 86 1000.9
20260507082803 8 246 1.6 3.2 0.00 0.00 0.00 87 1000.8
20260507081826 8 286 3.2 6.4 0.00 0.00 0.00 88 1000.6
20260507081324 8 42 3.2 6.4 0.00 0.00 0.00 88 1000.6
20260507080824 8 254 3.2 4.8 0.00 0.00 0.00 89 1000.5
20260507080322 8 270 3.2 6.4 0.00 0.00 0.00 88 1000.6
20260507075821 7 270 3.2 6.4 0.00 0.00 0.00 89 1000.5
20260507075320 7 304 3.2 6.4 0.00 0.00 0.00 89 1000.5
20260507074819 7 242 3.2 4.8 0.00 0.00 0.00 90 1000.4
20260507074318 7 304 3.2 6.4 0.00 0.00 0.00 90 1000.3
20260507073817 7 276 3.2 8.0 0.00 0.00 0.00 90 1000.2
20260507073316 7 294 3.2 8.0 0.00 0.00 0.00 91 1000.2
20260507072325 7 306 3.2 6.4 0.00 0.00 0.00 91 1000.0
20260507071824 7 354 4.8 6.4 0.00 0.00 0.00 90 999.9
20260507071323 7 60 4.8 9.7 0.00 0.00 0.00 91 999.9
20260507070821 7 281 3.2 8.0 0.00 0.00 0.00 90 999.8
20260507070320 7 271 4.8 8.0 0.00 0.00 0.00 90 999.9
20260507065819 7 236 3.2 8.0 0.00 0.00 0.00 90 999.9
20260507065318 7 240 3.2 6.4 0.00 0.00 0.00 91 999.9
20260507064426 7 196 3.2 6.4 0.00 0.00 0.00 91 999.9
20260507063926 7 300 3.2 8.0 0.00 0.00 0.00 90 999.9
20260507063424 7 132 4.8 9.7 0.00 0.00 0.00 90 999.8
20260507062642 7 318 3.2 9.7 0.00 0.00 0.00 91 999.9
20260507062141 7 253 3.2 11.3 0.00 0.00 0.00 92 999.8
20260507061639 7 281 3.2 9.7 0.00 0.00 0.00 91 999.8
20260507061138 7 312 3.2 6.4 0.00 0.00 0.00 92 999.6
20260507060637 7 30 3.2 4.8 0.00 0.00 0.00 91 999.6
20260507060135 7 294 3.2 6.4 0.00 0.00 0.00 91 999.6
20260507055634 7 261 3.2 9.7 0.00 0.00 0.00 91 999.5
20260507055133 7 266 3.2 6.4 0.00 0.00 0.00 92 999.5
20260507054632 7 60 3.2 6.4 0.00 0.00 0.00 91 999.4
20260507054131 7 330 1.6 3.2 0.00 0.00 0.00 92 999.2
20260507053445 7 272 3.2 6.4 0.00 0.00 0.00 92 999.3